Retour au catalogue

STARLINK-34753

ActifCommunicationsSSO
NORAD 64946·PAYLOAD·🇺🇸 United States

Lancé Jul 26, 2025 depuis Vandenberg Space Force Base

Loading…

Prochains Passages (prochaines 24 heures)

TLE

FraisSource: CelesTrak SupGP

Époque: Sep 15, 2026, 03:23 UTC

1 64946C 25158Q   26258.14145833 -.00049372  00000+0 -15322-2 0  2581
2 64946  97.2846 116.4479 0001891  93.1338 141.1843 15.33472087    18

Suivez STARLINK-34753 en temps réel avec AllMySat

Download on the App Store